This is the latest recevied weather packets stored in our database for station/object EA1L-13. If no packets are shown the sender has not sent any weather packets the latest 10 day(s).
| Time | Temp. | Humidity | Pressure | Rain* | Wind** | Luminosity | Snow |
|---|---|---|---|---|---|---|---|
| 1777765505 | 13.33° C | 100% | 1012 hPa | 0.25 mm | - | - | - |
| 1777764604 | 13.33° C | 100% | 1012.1 hPa | 0.25 mm | - | - | - |
| 1777763704 | 13.33° C | 100% | 1012.1 hPa | 0.25 mm | - | - | - |
| 1777762805 | 13.33° C | 100% | 1012 hPa | 0.25 mm | - | - | - |
| 1777761904 | 13.33° C | 100% | 1012.2 hPa | 0 mm | - | - | - |
| 1777761005 | 13.33° C | 100% | 1012.2 hPa | 0 mm | - | - | - |
| 1777760104 | 13.33° C | 100% | 1012.3 hPa | 0 mm | - | - | - |
| 1777759204 | 13.33° C | 100% | 1012.3 hPa | 0 mm | - | - | - |
| 1777758304 | 13.33° C | 100% | 1012.3 hPa | 0 mm | - | - | - |
| 1777757404 | 13.33° C | 100% | 1012.5 hPa | 0 mm | - | - | - |
| 1777756504 | 13.89° C | 100% | 1012.5 hPa | 0 mm | - | - | - |
| 1777755604 | 13.89° C | 100% | 1012.4 hPa | 0.51 mm | - | - | - |
| 1777754704 | 13.89° C | 100% | 1012.2 hPa | 0.76 mm | - | - | - |
| 1777753804 | 13.89° C | 100% | 1012.1 hPa | 1.02 mm | - | - | - |
| 1777752904 | 13.89° C | 100% | 1012.1 hPa | 1.78 mm | - | - | - |
| 1777752004 | 13.89° C | 100% | 1012.2 hPa | 2.79 mm | - | - | - |
| 1777751105 | 13.89° C | 100% | 1012.4 hPa | 4.57 mm | - | - | - |
| 1777750204 | 13.89° C | 100% | 1012.3 hPa | 4.57 mm | - | - | - |
| 1777749304 | 13.89° C | 100% | 1012.3 hPa | 3.81 mm | - | - | - |
| 1777748404 | 13.89° C | 100% | 1012.3 hPa | 2.29 mm | - | - | - |
| 1777747504 | 13.89° C | 100% | 1012.1 hPa | 0.25 mm | - | - | - |
| 1777746605 | 13.89° C | 100% | 1011.8 hPa | 0 mm | - | - | - |
| 1777745704 | 14.44° C | 100% | 1011.9 hPa | 0 mm | - | - | - |
| 1777744804 | 14.44° C | 100% | 1011.9 hPa | 0 mm | - | - | - |
| 1777743904 | 14.44° C | 100% | 1012 hPa | 0 mm | - | - | - |
* Rain latest hour (hover to see other rain measurements)
** Current wind speed in m/s (hover to see current wind gust speed)